Regional Weather Roundup
Issued by NWS

Home | Current Version | Previous Version | Graphics & Text | Print | Product List | Glossary On
Versions: 1 2 3 4 5 6 7 8 9 10 11 12 13 14 15 16 17 18 19 20 21 22 23 24 25 26 27 28 29 30 31 32 33 34 35 36 37 38 39 40 41 42 43 44 45 46 47 48 49 50
542
ASUS43 KBIS 310110
RWRND

NORTH DAKOTA REGIONAL WEATHER ROUNDUP
NATIONAL WEATHER SERVICE BISMARCK ND
800 PM CDT SAT JUL 30 2016

NOTE: "FAIR" INDICATES FEW OR NO CLOUDS BELOW 12,000 FEET WITH NO
SIGNIFICANT WEATHER AND/OR OBSTRUCTIONS TO VISIBILITY.


NDZ001>003-009>011-017-310200-
NORTHWEST NORTH DAKOTA

CITY           SKY/WX    TMP DP  RH WIND       PRES   REMARKS
WILLISTON      SUNNY     85  56  37 E14       29.76F
MINOT          SUNNY     86  60  41 E5        29.79F
MINOT AFB      SUNNY     82  62  49 SE5       29.78F
$$

NDZ018>021-031>035-040>046-310200-
SOUTHWEST NORTH DAKOTA

CITY           SKY/WX    TMP DP  RH WIND       PRES   REMARKS
BISMARCK       SUNNY     82  65  56 SE13      29.79F
DICKINSON      SUNNY     82  57  42 E9        29.77F
GARRISON         N/A     82  65  56 E6        29.79F
HETTINGER ARPT SUNNY     90  54  29 SE7       29.79F
$$

NDZ004>008-012>016-024-026-027-054-310200-
NORTHEAST NORTH DAKOTA

CITY           SKY/WX    TMP DP  RH WIND       PRES   REMARKS
GRAND FORKS    PTCLDY    78  62  57 SE14      29.87F
GRND FRKS AFB  MOCLDY    78  62  57 S12       29.88S
DEVILS LAKE    MOSUNNY   77  62  59 S16       29.86F
$$

NDZ022-023-025-028>030-036>039-047>053-310200-
SOUTHEAST NORTH DAKOTA

CITY           SKY/WX    TMP DP  RH WIND       PRES   REMARKS
FARGO          CLEAR     78  57  48 SE12      29.90F
JAMESTOWN      MOSUNNY   78  62  57 SE13      29.86F
$$





USA.gov is the U.S. government's official web portal to all federal, state and local government web resources and services.